Photometre #851[NE_1.6_Dp] Glasgow_MO AOT

File : 20220921_851.hum

21/09/2022,07:04:36,TEMP=11.2,BA=5.64,STAT.A,ExtBa=12.10
21/09/2022,07:09:14,TEMP=11.4,BA=5.64,STAT.A,ExtBa=12.10
21/09/2022,07:14:40,TEMP=11.6,BA=5.64,STAT.A,ExtBa=12.10
21/09/2022,07:21:07,TEMP=11.7,BA=5.64,STAT.A,ExtBa=12.10
21/09/2022,07:28:57,TEMP=12.0,BA=5.64,STAT.A,ExtBa=12.10
21/09/2022,07:38:39,TEMP=12.7,BA=5.64,STAT.A,ExtBa=12.10
21/09/2022,07:51:01,TEMP=13.3,BA=5.64,STAT.B,ExtBa=12.10
21/09/2022,07:59:37,TEMP=14.4,BA=5.64,STAT.A,ExtBa=12.00
21/09/2022,08:03:41,TEMP=14.3,BA=5.64,STAT.A,ExtBa=12.00
21/09/2022,08:11:19,TEMP=14.4,BA=5.64,STAT.A,ExtBa=12.00
21/09/2022,08:15:23,TEMP=14.6,BA=5.64,STAT.D,ExtBa=12.00
21/09/2022,08:20:04,TEMP=14.7,BA=5.64,STAT.A,ExtBa=12.00
21/09/2022,08:30:16,TEMP=15.1,BA=5.64,STAT.C,ExtBa=12.10
21/09/2022,08:42:19,TEMP=15.5,BA=5.64,STAT.A,ExtBa=12.10
21/09/2022,08:54:24,TEMP=16.1,BA=5.64,STAT.D,ExtBa=12.10
21/09/2022,08:56:51,TEMP=16.6,BA=5.64,STAT.A,ExtBa=12.00
21/09/2022,09:00:24,TEMP=16.8,BA=5.64,STAT.D,ExtBa=12.00
21/09/2022,09:11:59,TEMP=17.0,BA=5.64,STAT.F,ExtBa=12.10
21/09/2022,09:24:24,TEMP=17.3,BA=5.64,STAT.D,ExtBa=12.10
21/09/2022,09:26:58,TEMP=17.7,BA=5.64,STAT.D,ExtBa=12.00
21/09/2022,09:39:24,TEMP=18.1,BA=5.60,STAT.D,ExtBa=12.10
21/09/2022,09:41:58,TEMP=18.3,BA=5.64,STAT.D,ExtBa=12.00
21/09/2022,09:54:24,TEMP=18.2,BA=5.64,STAT.D,ExtBa=12.10
21/09/2022,09:56:58,TEMP=18.5,BA=5.64,STAT.D,ExtBa=12.00
21/09/2022,10:09:24,TEMP=19.3,BA=5.64,STAT.D,ExtBa=12.10
21/09/2022,10:12:00,TEMP=19.8,BA=5.60,STAT.F,ExtBa=12.00
21/09/2022,10:26:58,TEMP=19.5,BA=5.60,STAT.D,ExtBa=12.00
21/09/2022,10:30:24,TEMP=19.5,BA=5.64,STAT.D,ExtBa=12.00
21/09/2022,10:33:24,TEMP=19.6,BA=5.64,STAT.D,ExtBa=12.00
21/09/2022,10:41:58,TEMP=18.9,BA=5.64,STAT.D,ExtBa=12.00
21/09/2022,10:45:24,TEMP=19.0,BA=5.64,STAT.D,ExtBa=12.00
21/09/2022,10:48:24,TEMP=19.0,BA=5.64,STAT.D,ExtBa=12.00
21/09/2022,10:56:58,TEMP=18.3,BA=5.64,STAT.D,ExtBa=12.00
21/09/2022,11:09:24,TEMP=18.3,BA=5.64,STAT.D,ExtBa=12.10
21/09/2022,11:12:00,TEMP=18.8,BA=5.60,STAT.F,ExtBa=12.00
21/09/2022,11:37:46,TEMP=20.8,BA=5.60,STAT.D,ExtBa=12.00
21/09/2022,11:41:58,TEMP=20.1,BA=5.56,STAT.D,ExtBa=12.00
21/09/2022,11:54:24,TEMP=19.4,BA=5.64,STAT.D,ExtBa=12.00
21/09/2022,11:56:58,TEMP=19.6,BA=5.64,STAT.D,ExtBa=12.00
21/09/2022,12:00:24,TEMP=19.5,BA=5.64,STAT.D,ExtBa=12.00
21/09/2022,12:03:24,TEMP=19.6,BA=5.64,STAT.D,ExtBa=12.00
21/09/2022,12:06:24,TEMP=19.7,BA=5.64,STAT.D,ExtBa=12.00
21/09/2022,12:09:24,TEMP=19.8,BA=5.64,STAT.D,ExtBa=12.00
21/09/2022,12:12:00,TEMP=19.9,BA=5.60,STAT.F,ExtBa=12.00
21/09/2022,12:26:58,TEMP=19.4,BA=5.56,STAT.D,ExtBa=12.00
21/09/2022,12:30:24,TEMP=19.6,BA=5.64,STAT.D,ExtBa=12.00
21/09/2022,12:33:24,TEMP=19.9,BA=5.64,STAT.D,ExtBa=12.00
21/09/2022,12:36:24,TEMP=20.0,BA=5.64,STAT.D,ExtBa=12.00
21/09/2022,12:39:24,TEMP=20.2,BA=5.64,STAT.D,ExtBa=12.00
21/09/2022,12:41:58,TEMP=20.5,BA=5.56,STAT.D,ExtBa=12.00
21/09/2022,12:45:24,TEMP=20.6,BA=5.56,STAT.D,ExtBa=12.00
21/09/2022,12:48:24,TEMP=20.8,BA=5.56,STAT.D,ExtBa=12.00
21/09/2022,12:51:24,TEMP=20.8,BA=5.64,STAT.D,ExtBa=12.00
21/09/2022,12:54:24,TEMP=20.8,BA=5.64,STAT.D,ExtBa=12.00
21/09/2022,12:56:58,TEMP=20.9,BA=5.64,STAT.D,ExtBa=12.00
21/09/2022,13:00:24,TEMP=20.8,BA=5.64,STAT.D,ExtBa=12.00
21/09/2022,13:06:24,TEMP=20.3,BA=5.64,STAT.D,ExtBa=12.00
21/09/2022,13:09:24,TEMP=20.1,BA=5.64,STAT.D,ExtBa=12.00
21/09/2022,13:12:00,TEMP=20.1,BA=5.56,STAT.F,ExtBa=12.00
21/09/2022,13:24:24,TEMP=19.4,BA=5.64,STAT.D,ExtBa=12.00
21/09/2022,13:26:58,TEMP=19.4,BA=5.64,STAT.D,ExtBa=12.00
21/09/2022,13:39:24,TEMP=18.5,BA=5.64,STAT.D,ExtBa=12.00
21/09/2022,13:41:58,TEMP=18.6,BA=5.56,STAT.D,ExtBa=12.00
21/09/2022,13:54:24,TEMP=18.2,BA=5.64,STAT.D,ExtBa=12.00
21/09/2022,13:56:58,TEMP=18.4,BA=5.64,STAT.D,ExtBa=12.00
21/09/2022,14:09:24,TEMP=18.1,BA=5.64,STAT.D,ExtBa=12.00
21/09/2022,14:12:00,TEMP=18.4,BA=5.56,STAT.F,ExtBa=12.00
21/09/2022,14:26:58,TEMP=18.3,BA=5.52,STAT.D,ExtBa=12.00
21/09/2022,14:39:24,TEMP=17.6,BA=5.64,STAT.D,ExtBa=12.00
21/09/2022,14:41:58,TEMP=17.8,BA=5.60,STAT.D,ExtBa=12.00
21/09/2022,14:54:24,TEMP=17.4,BA=5.64,STAT.D,ExtBa=12.00
21/09/2022,14:56:58,TEMP=17.7,BA=5.64,STAT.D,ExtBa=12.00
21/09/2022,15:09:24,TEMP=17.5,BA=5.64,STAT.D,ExtBa=12.00
21/09/2022,15:11:59,TEMP=17.8,BA=5.60,STAT.F,ExtBa=12.00
21/09/2022,15:36:34,TEMP=18.8,BA=5.56,STAT.A,ExtBa=11.90
21/09/2022,15:41:39,TEMP=18.2,BA=5.64,STAT.A,ExtBa=12.00
21/09/2022,15:53:42,TEMP=17.5,BA=5.64,STAT.C,ExtBa=12.00
21/09/2022,16:03:54,TEMP=17.1,BA=5.64,STAT.A,ExtBa=12.00
21/09/2022,16:12:39,TEMP=16.9,BA=5.64,STAT.A,ExtBa=12.00
21/09/2022,16:20:17,TEMP=16.7,BA=5.60,STAT.A,ExtBa=12.00
21/09/2022,16:27:00,TEMP=16.6,BA=5.60,STAT.A,ExtBa=12.00
21/09/2022,16:32:57,TEMP=16.5,BA=5.64,STAT.B,ExtBa=12.00
21/09/2022,16:45:19,TEMP=16.3,BA=5.64,STAT.A,ExtBa=12.00
21/09/2022,16:55:01,TEMP=16.2,BA=5.64,STAT.A,ExtBa=12.00
21/09/2022,17:02:51,TEMP=16.1,BA=5.64,STAT.A,ExtBa=12.00
21/09/2022,17:09:18,TEMP=16.1,BA=5.64,STAT.A,ExtBa=12.00
21/09/2022,17:18:23,TEMP=16.1,BA=5.60,STAT.D,ExtBa=12.00
21/09/2022,17:20:22,TEMP=16.4,BA=5.64,STAT.A,ExtBa=12.00